Location: Presov
(49.0000°N, 21.2500°E)
Time: 23:05:22
(UTC+02:00)

Transit 2A Rocket - Pass Details

Date: 22 April 2021
Orbit: 594 x 908 km, 66.7° (Epoch: 05 May)

Event Time Altitude Azimuth Distance (km) Brightness Sun altitude
Rises 14:46:52 0° 189° (S) 2,948 8.6 44.2°
Reaches altitude 10° 14:49:21 10° 180° (S) 2,004 7.8 43.9°
Maximum altitude 14:53:22 33° 116° (ESE) 1,025 5.8 43.4°
Drops below altitude 10° 14:57:16 10° 52° (NE) 1,942 6.8 42.9°
Sets 14:59:38 0° 43° (NE) 2,842 7.5 42.6°
